THORAD AGENA D DEB, 5349

Orbit data source: Space-Track

THORAD AGENA D DEB, 5349 is space debris in SSO originally from a launch on Wed, 08 Apr 1970 UTC launched from the Air Force Western Test Range (AFWTR). Debris objects in space refer to the collection of defunct objects orbiting the Earth. Examples of debris include non-operational satellites, rocket bodies, and fragments generated from explosions, collisions, or faulty payload assembly.

Loading next visibility...
Identifier
5349, 1970-025KN
Orbit
SSO
Country
Flag of USUS
Related business
Manufacturer
Unknown
Mission
Spacecraft
Bus & Motor
Unknown
Mass
Unknown
Launch date (UTC)
1970-04-08 (56 years ago)
Launch vehicle
Unknown
Launch site
Air Force Western Test Range (AFWTR)
Object type
Payload
Rocket body
Debris
Shape & HBR
Unknown shape, 0.1 m
Radar Cross Section
Medium (>0.1 m² and <1 m²)

Expand to show TLE details & history
Last TLE update: 14 hours ago

TLE from 14 hours ago
0 THORAD AGENA D DEB
1 05349U 70025KN  26208.12538069  .00004293  00000-0  18156-2 0  9998
2 05349  99.8108  94.9778 0056427  50.5000 310.1146 14.25274306755609
Epoch: 2026-07-27T03:00Z
TLE epoch observation values (Epoch: 2026-07-27T03:00:32.891Z)
Latitude
-0.00001°
Longitude
105.02731°
Altitude
784.459 km
Speed
7.475 km/s
True Right ascension
06h 19m 54s
True Declination
0° 00' 00"
Sunlit
Object was in daylight at epoch
Visualization orbit readout
Latitude
Unknown
Longitude
Unknown
Altitude
Unknown
Speed
Unknown
Apparent Right ascension
Unknown
Apparent Declination
Unknown
Sunlit
N/A
Visualization observer readout
Local Sidereal Time
05:56:51
Azimuth
Unknown
Elevation
Unknown
Doppler factor
Unknown
Orbital elements
Apogee altitude
845.309 km
Perigee altitude
764.247 km
Semi-major axis
7,182.915 km
Eccentricity
0.00564
Inclination
99.8108°
RAAN
94.9778°
Arg. of periapsis
50.5°
True anomaly
309.61785°
Mean anomaly
310.1146°
Eccentric anomaly
309.86645°
Mean motion
3.56527 °/min
Orbital period
100.97 mins
BSTAR
0.0018156
Loading maneuver chart data...
Computing Atmospheric mass density...

Documentation

Showing up to 5 results
|